Aérodrome :
LOGIN :

S'inscrire | Disclaimer

   EN    FR    IT 

 










Légende :    VFR   VFR Marginal   IFR   IFR Intensif   IFR Très Intensif
Visi : 
Plafond : 
>= 8 km
>= 3000ft
5 à 8 km
1000 à 3000 ft
1500m à 5 km
500 à 1000 ft
800 à 1500m
200 à 500 ft
< 800m
< 200 ft
Symboles :   Orages  Brouillard  Fortes neiges  Fortes précipitations  Vent > 20 kt
SIGMETs :   Divers  Orages  Givrage  Turbulence  Onde Orograph.  Cendres Volcan.







- Altitude de l'aérodrome : 37 ft
- Code IATA : OLB


LIEO - Olbia Costa Smeralda

DERNIER METAR :
  • 160020Z VRB02KT CAVOK 22/20 Q1014

METARs EXPIRÉS :
  • 152350Z 22004KT 170V250 9999 FEW030 22/19 Q1014
  • 152320Z 22003KT 9999 FEW030 22/19 Q1014
  • 152250Z 21003KT 170V240 9999 FEW030 22/19 Q1015
  • 152220Z VRB02KT 9999 FEW030 22/19 Q1015
  • 152150Z VRB01KT 9999 FEW030 22/19 Q1014

TAF TAF LIEO
Valide du 16 à 00h jusqu'au 17 à 00h UTC


152300Z 1600/1624 30008KT 9999 FEW030
BECMG 1606/1608 02012KT
TEMPO 1608/1612 SHRA
BECMG 1619/1621 VRB04KT
Pas de NOTAMs connus pour ce terrain.



MET'MAP, la Météo Aéronautique d'un coup d'oeil ! - Copyright ORBIFLY Décembre 2007 - Disclaimer

ORBIFLY MET'MAP TEAM :

Programmation & Développement : Alexandra Zaïnal
Conception & Développement : Baudouin d'Aumeries
Co-Programmation & Développement : Marc-Olivier Méhu
Soutien technique & logistique : Manuel Goepfert

Contact : metmap@orbifly.com




SOURCES & CREDITS :

   NOAA